Zurück zum Katalog

MR-1

AktivWissenschaftPO
NORAD 67557·PAYLOAD·🇪🇸 Spain

Gestartet Jan 22, 2026 von Rocket Lab Launch Complex 1

Loading…

Nächste Überflüge (nächste 24 Stunden)

TLE

AktuellSource: Space-Track

Epoche: Sep 13, 2026, 18:00 UTC

1 67557U 26015B   26256.75026286  .00000038  00000-0  39664-4 0  9994
2 67557  88.9940 259.5506 0003870 150.1728 209.9646 13.52674683 31683

Verfolge MR-1 in Echtzeit mit AllMySat

Download on the App Store